User: anonymous   Login
Location: The D'Auria's Ocala Star Observatory
(29.0276°N, 82.1742°W)
Time: 20:05:52
(UTC-04:00)
Language:

Abrixas rocket - Orbit

View from above orbital plane
View from above orbital plane
View from above satellite
View from above satellite

Ground track
Ground track

The orbit data is extracted from the following two-line orbital elements,

1 25723U 99022C   16151.84702722  .00007448  00000-0  14538-3 0  9994
2 25723  48.4189  37.3144 0011314 353.9404  55.2225 15.48381622947130
Epoch (UTC): 30 May 2016 20:19:43
Eccentricity: 0.0011314
inclination: 48.4189°
perigee height: 414 km
apogee height: 429 km
right ascension of ascending node: 37.3144°
argument of perigee: 353.9404°
revolutions per day: 15.48381622
mean anomaly at epoch: 55.2225°
orbit number at epoch: 94713

The dashed part of the orbit path shows where the satellite is in the earth's shadow,  

DLR